Flag for U.S.A. Weather past 2 weeks in Pasadena, Texas, U.S.A.

Now
79 °F

Passing clouds.


Feels Like: 82 °F
Forecast: 76 / 91 °F
Wind: 3 mph from West

Location: Houston / Ellington

Current Time: Jul 25, 2014 at 4:52:13 AM

Latest Report: Jul 25, 2014 at 2:50 AM


Visibility: 10 mi

Pressure: 30.01 "Hg

Humidity: 89%

Dew point: 75 °F

Location of PasadenaLocation

Historic Weather in Pasadena — Graph

°F

Pasadena temperature yesterday

Maximum temperature yesterday: 91 °F (at 1:50 PM)
Minimum temperature yesterday: 75 °F (at 3:50 AM)
Average temperature yesterday: 83 °F

Past Weeks' High & Low Weather Summary

 TemperatureHumidityPressure
High97 °F (Jul 14, 1:50 PM)100% (Jul 23, 8:50 AM)30.16 "Hg (Jul 23, 8:50 AM)
Low73 °F (Jul 19, 3:50 AM)47% (Jul 11, 2:50 PM)29.86 "Hg (Jul 17, 5:50 PM)
Average83 °F77%30.01 "Hg
* Reported Jul 10 2:50 AM — Jul 25 2:50 AM, Pasadena, Weather by CustomWeather, © 2014

Note: Actual official high and low records may vary slightly from our data, if they occured in-between our weather recording intervals... More about our weather records

Advertising

Pasadena weather history for previous 24 hours

 ConditionsComfort  
Time TempWeatherWind HumidityBarometerVisibility
2:50 AM
Jul 25
79 °FPassing clouds.3 mph89%30.01 "Hg10 mi
1:50 AM79 °FPassing clouds.2 mph89%30.00 "Hg10 mi
12:50 AM81 °FPassing clouds.2 mph84%30.01 "Hg10 mi
11:50 PM
Jul 24
81 °FPassing clouds.3 mph74%30.00 "Hg7 mi
10:50 PM81 °FPassing clouds.3 mph74%30.00 "Hg7 mi
9:50 PM82 °FPassing clouds.5 mph79%29.98 "Hg7 mi
8:50 PM86 °FScattered clouds.6 mph70%29.97 "Hg7 mi
5:50 PM90 °FScattered clouds.No wind63%29.95 "Hg7 mi
4:50 PM88 °FScattered clouds.No wind66%29.96 "Hg7 mi
3:50 PM86 °FPartly sunny.7 mph70%29.99 "Hg7 mi
2:50 PM90 °FThunderstorms. Broken clouds.5 mph63%30.02 "Hg5 mi
1:50 PM91 °FPartly sunny.3 mph56%30.02 "Hg5 mi
12:50 PM90 °FPartly sunny.3 mph63%30.02 "Hg5 mi
11:50 AM90 °FPartly sunny.3 mph71%30.04 "Hg5 mi
10:50 AM90 °FPartly sunny.3 mph71%30.05 "Hg5 mi
9:50 AM88 °FScattered clouds.3 mph70%30.03 "Hg10 mi
8:50 AM81 °FScattered clouds.No wind74%30.03 "Hg10 mi
7:50 AM77 °FScattered clouds.3 mph89%30.02 "Hg10 mi
6:50 AM75 °FPassing clouds.5 mph89%30.00 "Hg10 mi
5:50 AM75 °FPassing clouds.No wind89%29.99 "Hg10 mi
4:50 AM75 °FPassing clouds.3 mph89%29.98 "Hg10 mi
Weather by CustomWeather, © 2014

See weather overviewHow to use our weather pages